nws-alerts: Checking more than four warning/county codes can delay the loading of your pages. You should use a cron job to get the data.
EllijayWeather Station Historical Data
Daily Summary for March 4, 2019 Units:  English    Metric   Both
Daily Weekly Monthly Yearly Custom
  High: Low: Average:
Temperature: 37.2 °F 28.0 °F 32.8 °F
Dew Point: 34.3 °F 21.2 °F 27.4 °F
Humidity: 91% 66% 80%
Wind Speed: 11.0mph 0.0mph 0.8mph
Wind Gust: 11.0mph - -
Wind- - WSW
Pressure: 30.21 in 29.92 in -
Precipitation: 0.01 in    
Historical Graphs
 
 
Tabular Data for March 4, 2019
Time Temperature Dew Point Pressure Wind Wind Speed Wind Gust Humidity Rainfall Rate (Hourly) solar
00:04 37.2 °F 34.3 °F 29.93 in Calm     89% 0.00 in meteobridge W/m2
00:09 37.0 °F 34.2 °F 29.93 in Calm   2.0 mph 89% 0.00 in meteobridge W/m2
00:14 36.9 °F 33.6 °F 29.93 in Calm   6.0 mph 88% 0.00 in meteobridge W/m2
00:19 36.9 °F 34.0 °F 29.93 in Calm   3.0 mph 89% 0.00 in meteobridge W/m2
00:24 36.7 °F 34.0 °F 29.93 in Calm   2.0 mph 90% 0.00 in meteobridge W/m2
00:29 36.7 °F 33.8 °F 29.93 in West 4.0 mph 8.0 mph 89% 0.00 in meteobridge W/m2
00:34 36.7 °F 33.4 °F 29.93 in Calm   3.0 mph 88% 0.00 in meteobridge W/m2
00:39 36.5 °F 33.8 °F 29.93 in Calm     90% 0.00 in meteobridge W/m2
00:44 36.3 °F 33.4 °F 29.93 in Calm   1.0 mph 89% 0.00 in meteobridge W/m2
00:49 36.3 °F 33.4 °F 29.93 in Calm   3.0 mph 89% 0.00 in meteobridge W/m2
00:54 36.3 °F 33.6 °F 29.92 in NNW 4.0 mph 5.0 mph 90% 0.00 in meteobridge W/m2
00:59 36.3 °F 33.4 °F 29.93 in Calm   3.0 mph 89% 0.00 in meteobridge W/m2
01:04 36.1 °F 33.4 °F 29.94 in Calm   2.0 mph 90% 0.00 in meteobridge W/m2
01:09 36.1 °F 33.4 °F 29.93 in Calm     90% 0.00 in meteobridge W/m2
01:14 36.1 °F 33.4 °F 29.94 in Calm     90% 0.00 in meteobridge W/m2
01:19 36.1 °F 33.4 °F 29.93 in NW 0.9 mph 4.0 mph 90% 0.00 in meteobridge W/m2
01:24 36.1 °F 33.4 °F 29.94 in Calm   5.0 mph 90% 0.00 in meteobridge W/m2
01:29 36.1 °F 33.3 °F 29.94 in Calm   5.0 mph 89% 0.00 in meteobridge W/m2
01:34 36.1 °F 33.4 °F 29.94 in Calm   3.0 mph 90% 0.00 in meteobridge W/m2
01:39 36.1 °F 33.3 °F 29.94 in Calm   5.0 mph 89% 0.00 in meteobridge W/m2
01:44 36.0 °F 32.7 °F 29.94 in NW 4.0 mph 5.0 mph 88% 0.00 in meteobridge W/m2
01:49 36.0 °F 32.7 °F 29.94 in Calm   3.0 mph 88% 0.00 in meteobridge W/m2
01:54 35.8 °F 33.1 °F 29.94 in Calm     90% 0.00 in meteobridge W/m2
01:59 35.8 °F 32.9 °F 29.95 in WNW 2.0 mph 3.0 mph 89% 0.00 in meteobridge W/m2
02:04 35.6 °F 32.7 °F 29.96 in Calm   3.0 mph 89% 0.00 in meteobridge W/m2
02:09 35.4 °F 32.7 °F 29.96 in Calm   4.0 mph 90% 0.00 in meteobridge W/m2
02:14 35.4 °F 33.1 °F 29.97 in Calm   1.0 mph 91% 0.00 in meteobridge W/m2
02:19 35.2 °F 32.5 °F 29.97 in Calm   3.0 mph 90% 0.00 in meteobridge W/m2
02:24 35.2 °F 32.4 °F 29.98 in Calm   6.0 mph 89% 0.00 in meteobridge W/m2
02:29 35.1 °F 32.2 °F 29.96 in West 0.9 mph 6.0 mph 89% 0.00 in meteobridge W/m2
02:34 35.1 °F 31.8 °F 29.96 in NW 6.0 mph 7.0 mph 88% 0.00 in meteobridge W/m2
02:39 34.9 °F 31.6 °F 29.96 in Calm   11.0 mph 88% 0.00 in meteobridge W/m2
02:44 34.9 °F 32.0 °F 29.95 in NW 4.0 mph 11.0 mph 89% 0.00 in meteobridge W/m2
02:49 34.7 °F 31.8 °F 29.96 in Calm   4.0 mph 89% 0.00 in meteobridge W/m2
02:54 34.5 °F 31.8 °F 29.96 in NNW 4.9 mph 6.0 mph 90% 0.00 in meteobridge W/m2
02:59 34.5 °F 31.6 °F 29.96 in Calm   1.0 mph 89% 0.00 in meteobridge W/m2
03:04 34.5 °F 31.6 °F 29.96 in Calm   2.0 mph 89% 0.00 in meteobridge W/m2
03:09 34.3 °F 31.6 °F 29.96 in Calm     90% 0.00 in meteobridge W/m2
03:14 34.3 °F 31.6 °F 29.96 in Calm   3.0 mph 90% 0.00 in meteobridge W/m2
03:19 34.3 °F 31.5 °F 29.96 in Calm     89% 0.00 in meteobridge W/m2
03:24 34.2 °F 31.5 °F 29.97 in West 2.0 mph 4.0 mph 90% 0.00 in meteobridge W/m2
03:29 34.2 °F 31.3 °F 29.96 in Calm   3.0 mph 89% 0.00 in meteobridge W/m2
03:34 34.2 °F 31.3 °F 29.96 in Calm   3.0 mph 89% 0.00 in meteobridge W/m2
03:39 34.0 °F 31.1 °F 29.96 in Calm   4.0 mph 89% 0.00 in meteobridge W/m2
03:44 34.0 °F 31.1 °F 29.96 in NW 4.9 mph 5.0 mph 89% 0.00 in meteobridge W/m2
03:49 34.0 °F 31.1 °F 29.96 in ENE 4.0 mph 6.0 mph 89% 0.00 in meteobridge W/m2
03:54 34.0 °F 31.3 °F 29.97 in Calm   2.0 mph 90% 0.00 in meteobridge W/m2
03:59 34.0 °F 31.1 °F 29.97 in Calm   4.0 mph 89% 0.00 in meteobridge W/m2
04:04 34.0 °F 31.3 °F 29.97 in Calm     90% 0.00 in meteobridge W/m2
04:09 34.0 °F 31.1 °F 29.97 in Calm     89% 0.00 in meteobridge W/m2
04:14 34.0 °F 31.1 °F 29.98 in Calm     89% 0.00 in meteobridge W/m2
04:19 34.0 °F 31.1 °F 29.98 in Calm   3.0 mph 89% 0.00 in meteobridge W/m2
04:24 34.0 °F 31.3 °F 29.98 in Calm   4.0 mph 90% 0.00 in meteobridge W/m2
04:29 34.0 °F 31.1 °F 29.98 in Calm   2.0 mph 89% 0.00 in meteobridge W/m2
04:34 33.8 °F 30.9 °F 29.99 in Calm   2.0 mph 89% 0.00 in meteobridge W/m2
04:39 33.6 °F 30.7 °F 29.99 in Calm   2.0 mph 89% 0.00 in meteobridge W/m2
04:44 33.6 °F 30.4 °F 29.99 in West 0.9 mph 7.0 mph 88% 0.00 in meteobridge W/m2
04:49 33.6 °F 30.7 °F 30.00 in Calm   4.0 mph 89% 0.00 in meteobridge W/m2
04:54 33.6 °F 30.4 °F 30.00 in West 11.0 mph 11.0 mph 88% 0.00 in meteobridge W/m2
04:59 33.6 °F 30.4 °F 30.01 in Calm   3.0 mph 88% 0.00 in meteobridge W/m2
05:04 33.6 °F 30.4 °F 30.01 in Calm   5.0 mph 88% 0.00 in meteobridge W/m2
05:09 33.4 °F 30.2 °F 30.01 in WNW 0.9 mph 8.0 mph 88% 0.00 in meteobridge W/m2
05:14 33.4 °F 30.2 °F 30.01 in Calm   2.0 mph 88% 0.00 in meteobridge W/m2
05:19 33.3 °F 30.0 °F 30.01 in Calm   2.0 mph 88% 0.00 in meteobridge W/m2
05:24 33.4 °F 30.0 °F 30.01 in North 4.0 mph 5.0 mph 87% 0.00 in meteobridge W/m2
05:29 33.3 °F 29.8 °F 30.01 in North 0.9 mph 4.0 mph 87% 0.00 in meteobridge W/m2
05:34 33.3 °F 29.8 °F 30.01 in Calm   4.0 mph 87% 0.00 in meteobridge W/m2
05:39 33.3 °F 29.8 °F 30.02 in Calm   7.0 mph 87% 0.00 in meteobridge W/m2
05:44 33.1 °F 29.7 °F 30.02 in Calm   6.0 mph 87% 0.00 in meteobridge W/m2
05:49 33.1 °F 29.3 °F 30.02 in Calm   5.0 mph 86% 0.00 in meteobridge W/m2
05:54 32.9 °F 29.5 °F 30.02 in Calm   5.0 mph 87% 0.00 in meteobridge W/m2
05:59 32.9 °F 29.5 °F 30.02 in West 6.9 mph 7.0 mph 87% 0.00 in meteobridge W/m2
06:04 32.7 °F 29.3 °F 30.03 in WNW 0.9 mph 6.0 mph 87% 0.00 in meteobridge W/m2
06:09 32.7 °F 29.3 °F 30.03 in North 0.9 mph 6.0 mph 87% 0.00 in meteobridge W/m2
06:14 32.7 °F 29.5 °F 30.03 in ENE 0.9 mph 1.0 mph 88% 0.00 in meteobridge W/m2
06:19 32.7 °F 29.5 °F 30.03 in Calm     88% 0.00 in meteobridge W/m2
06:24 32.5 °F 29.3 °F 30.03 in East 2.9 mph 3.0 mph 88% 0.00 in meteobridge W/m2
06:29 32.4 °F 29.1 °F 30.03 in North 0.9 mph 3.0 mph 88% 0.00 in meteobridge W/m2
06:34 32.4 °F 29.1 °F 30.04 in NNW 0.9 mph 7.0 mph 88% 0.00 in meteobridge W/m2
06:39 32.2 °F 28.9 °F 30.03 in Calm   6.0 mph 88% 0.00 in meteobridge W/m2
06:44 32.2 °F 29.3 °F 30.03 in Calm   4.0 mph 89% 0.00 in meteobridge W/m2
06:49 32.2 °F 29.3 °F 30.04 in NNW 2.9 mph 4.0 mph 89% 0.00 in meteobridge W/m2
06:54 32.0 °F 28.9 °F 30.04 in NW 0.9 mph 4.0 mph 88% 0.00 in meteobridge W/m2
06:59 32.0 °F 28.9 °F 30.04 in Calm   4.0 mph 88% 0.00 in meteobridge W/m2
07:04 31.8 °F 28.8 °F 30.05 in Calm     88% 0.00 in meteobridge W/m2
07:09 32.0 °F 28.9 °F 30.05 in Calm   1.0 mph 88% 0.00 in meteobridge W/m2
07:14 31.8 °F 28.8 °F 30.05 in WNW 2.9 mph 5.0 mph 88% 0.00 in meteobridge W/m2
07:19 31.8 °F 28.8 °F 30.05 in Calm     88% 0.00 in meteobridge W/m2
07:24 31.8 °F 28.4 °F 30.05 in West 2.0 mph 5.0 mph 87% 0.00 in meteobridge W/m2
07:29 31.8 °F 28.4 °F 30.05 in NNE 2.9 mph 4.0 mph 87% 0.00 in meteobridge W/m2
07:34 31.8 °F 28.8 °F 30.05 in Calm   3.0 mph 88% 0.00 in meteobridge W/m2
07:39 31.8 °F 28.4 °F 30.05 in Calm   10.0 mph 87% 0.00 in meteobridge W/m2
07:44 31.8 °F 28.8 °F 30.04 in Calm     88% 0.00 in meteobridge W/m2
07:49 31.8 °F 28.8 °F 30.05 in NNW 0.9 mph 1.0 mph 88% 0.00 in meteobridge W/m2
07:54 31.8 °F 28.4 °F 30.06 in Calm   3.0 mph 87% 0.00 in meteobridge W/m2
07:59 31.8 °F 28.4 °F 30.06 in Calm   4.0 mph 87% 0.00 in meteobridge W/m2
08:04 31.8 °F 28.0 °F 30.06 in Calm   4.0 mph 86% 0.00 in meteobridge W/m2
08:09 31.8 °F 28.0 °F 30.07 in NNE 0.9 mph 4.0 mph 86% 0.00 in meteobridge W/m2
08:14 31.8 °F 28.0 °F 30.08 in NW 4.0 mph 7.0 mph 86% 0.00 in meteobridge W/m2
08:19 31.8 °F 27.9 °F 30.09 in Calm   4.0 mph 85% 0.00 in meteobridge W/m2
08:24 31.8 °F 28.0 °F 30.09 in Calm     86% 0.00 in meteobridge W/m2
08:29 31.8 °F 28.0 °F 30.10 in NNW 2.9 mph 8.0 mph 86% 0.00 in meteobridge W/m2
08:34 31.8 °F 27.5 °F 30.09 in Calm   4.0 mph 84% 0.00 in meteobridge W/m2
08:39 31.6 °F 27.7 °F 30.11 in Calm   4.0 mph 85% 0.00 in meteobridge W/m2
08:44 31.6 °F 27.7 °F 30.11 in Calm   6.0 mph 85% 0.00 in meteobridge W/m2
08:49 31.6 °F 27.3 °F 30.11 in Calm   4.0 mph 84% 0.00 in meteobridge W/m2
08:54 31.6 °F 27.7 °F 30.10 in Calm   3.0 mph 85% 0.00 in meteobridge W/m2
08:59 31.6 °F 27.7 °F 30.11 in Calm   3.0 mph 85% 0.00 in meteobridge W/m2
09:04 31.6 °F 27.7 °F 30.11 in NNW 2.0 mph 3.0 mph 85% 0.00 in meteobridge W/m2
09:09 31.6 °F 27.3 °F 30.11 in Calm   4.0 mph 84% 0.00 in meteobridge W/m2
09:14 31.6 °F 27.3 °F 30.11 in Calm   7.0 mph 84% 0.00 in meteobridge W/m2
09:19 31.6 °F 27.3 °F 30.11 in Calm   1.0 mph 84% 0.00 in meteobridge W/m2
09:24 31.6 °F 27.7 °F 30.11 in Calm   3.0 mph 85% 0.00 in meteobridge W/m2
09:29 31.6 °F 27.3 °F 30.11 in Calm   5.0 mph 84% 0.00 in meteobridge W/m2
09:34 31.8 °F 27.3 °F 30.11 in Calm   2.0 mph 83% 0.00 in meteobridge W/m2
09:39 31.8 °F 27.9 °F 30.12 in Calm   3.0 mph 85% 0.00 in meteobridge W/m2
09:44 31.8 °F 27.5 °F 30.12 in Calm   3.0 mph 84% 0.00 in meteobridge W/m2
09:49 31.8 °F 27.3 °F 30.12 in Calm   3.0 mph 83% 0.00 in meteobridge W/m2
09:54 31.8 °F 27.0 °F 30.12 in West 2.0 mph 7.0 mph 82% 0.00 in meteobridge W/m2
09:59 31.8 °F 27.0 °F 30.12 in Calm   2.0 mph 82% 0.00 in meteobridge W/m2
10:04 31.6 °F 27.1 °F 30.12 in Calm   2.0 mph 83% 0.00 in meteobridge W/m2
10:09 31.6 °F 26.8 °F 30.13 in Calm   1.0 mph 82% 0.00 in meteobridge W/m2
10:14 31.6 °F 27.1 °F 30.12 in NNW 4.9 mph 5.0 mph 83% 0.00 in meteobridge W/m2
10:19 31.6 °F 26.8 °F 30.12 in Calm   5.0 mph 82% 0.00 in meteobridge W/m2
10:24 31.6 °F 26.8 °F 30.12 in Calm   4.0 mph 82% 0.00 in meteobridge W/m2
10:29 31.6 °F 26.4 °F 30.12 in ENE 0.9 mph 6.0 mph 81% 0.00 in meteobridge W/m2
10:34 31.8 °F 27.0 °F 30.13 in Calm   3.0 mph 82% 0.00 in meteobridge W/m2
10:39 31.8 °F 27.0 °F 30.14 in NW 2.0 mph 3.0 mph 82% 0.00 in meteobridge W/m2
10:44 31.8 °F 26.6 °F 30.14 in NE 0.9 mph 3.0 mph 81% 0.00 in meteobridge W/m2
10:49 31.8 °F 26.4 °F 30.14 in Calm   3.0 mph 80% 0.00 in meteobridge W/m2
10:54 31.8 °F 26.4 °F 30.13 in Calm   2.0 mph 80% 0.00 in meteobridge W/m2
10:59 31.8 °F 26.6 °F 30.13 in Calm     81% 0.00 in meteobridge W/m2
11:04 31.8 °F 26.6 °F 30.13 in West 2.0 mph 3.0 mph 81% 0.00 in meteobridge W/m2
11:09 31.8 °F 26.6 °F 30.14 in West 0.9 mph 6.0 mph 81% 0.00 in meteobridge W/m2
11:14 31.8 °F 26.4 °F 30.14 in Calm   7.0 mph 80% 0.00 in meteobridge W/m2
11:19 31.8 °F 27.0 °F 30.14 in NNW 4.0 mph 5.0 mph 82% 0.00 in meteobridge W/m2
11:24 32.0 °F 27.1 °F 30.15 in NNW 2.0 mph 3.0 mph 82% 0.00 in meteobridge W/m2
11:29 32.2 °F 26.8 °F 30.15 in NNE 0.9 mph 4.0 mph 80% 0.00 in meteobridge W/m2
11:34 32.2 °F 27.0 °F 30.16 in NW 2.0 mph 3.0 mph 81% 0.00 in meteobridge W/m2
11:39 32.2 °F 26.8 °F 30.15 in Calm   1.0 mph 80% 0.00 in meteobridge W/m2
11:44 32.4 °F 27.1 °F 30.15 in Calm   3.0 mph 81% 0.00 in meteobridge W/m2
11:49 32.4 °F 26.6 °F 30.15 in ENE 2.0 mph 8.0 mph 79% 0.00 in meteobridge W/m2
11:54 32.4 °F 27.0 °F 30.15 in Calm   2.0 mph 80% 0.00 in meteobridge W/m2
11:59 32.4 °F 26.6 °F 30.16 in NNE 0.9 mph 3.0 mph 79% 0.00 in meteobridge W/m2
12:04 32.4 °F 27.5 °F 30.16 in Calm   1.0 mph 82% 0.00 in meteobridge W/m2
12:09 32.5 °F 26.8 °F 30.16 in Calm   1.0 mph 79% 0.00 in meteobridge W/m2
12:14 32.5 °F 26.8 °F 30.17 in Calm   5.0 mph 79% 0.00 in meteobridge W/m2
12:19 32.4 °F 27.0 °F 30.17 in Calm   3.0 mph 80% 0.00 in meteobridge W/m2
12:24 32.4 °F 27.0 °F 30.17 in Calm   2.0 mph 80% 0.00 in meteobridge W/m2
12:29 32.4 °F 26.6 °F 30.17 in North 0.9 mph 5.0 mph 79% 0.00 in meteobridge W/m2
12:34 32.4 °F 27.0 °F 30.18 in Calm   1.0 mph 80% 0.00 in meteobridge W/m2
12:39 32.4 °F 26.6 °F 30.18 in Calm   5.0 mph 79% 0.00 in meteobridge W/m2
12:44 32.2 °F 26.4 °F 30.17 in NNW 0.9 mph 3.0 mph 79% 0.00 in meteobridge W/m2
12:49 32.2 °F 26.8 °F 30.16 in Calm   4.0 mph 80% 0.00 in meteobridge W/m2
12:54 32.2 °F 26.4 °F 30.16 in Calm   5.0 mph 79% 0.00 in meteobridge W/m2
12:59 32.4 °F 26.6 °F 30.16 in Calm   3.0 mph 79% 0.00 in meteobridge W/m2
13:04 32.5 °F 27.1 °F 30.16 in NW 2.0 mph 5.0 mph 80% 0.00 in meteobridge W/m2
13:09 32.5 °F 26.4 °F 30.16 in East 2.0 mph 8.0 mph 78% 0.00 in meteobridge W/m2
13:14 32.7 °F 27.0 °F 30.16 in Calm   2.0 mph 79% 0.00 in meteobridge W/m2
13:19 32.9 °F 26.8 °F 30.16 in Calm   6.0 mph 78% 0.00 in meteobridge W/m2
13:24 33.1 °F 27.3 °F 30.16 in ENE 2.0 mph 2.0 mph 79% 0.00 in meteobridge W/m2
13:29 33.3 °F 26.8 °F 30.15 in Calm   2.0 mph 77% 0.00 in meteobridge W/m2
13:34 33.3 °F 26.8 °F 30.16 in Calm   1.0 mph 77% 0.00 in meteobridge W/m2
13:39 33.4 °F 27.3 °F 30.15 in Calm   2.0 mph 78% 0.00 in meteobridge W/m2
13:44 33.6 °F 27.1 °F 30.14 in NNE 0.9 mph 4.0 mph 77% 0.00 in meteobridge W/m2
13:49 34.0 °F 27.5 °F 30.14 in Calm   6.0 mph 77% 0.00 in meteobridge W/m2
13:54 34.2 °F 27.3 °F 30.15 in Calm     76% 0.00 in meteobridge W/m2
13:59 34.2 °F 27.3 °F 30.14 in NNW 2.0 mph 5.0 mph 76% 0.00 in meteobridge W/m2
14:04 34.3 °F 27.3 °F 30.14 in Calm   8.0 mph 75% 0.00 in meteobridge W/m2
14:09 34.5 °F 27.1 °F 30.14 in NE 2.9 mph 9.0 mph 74% 0.00 in meteobridge W/m2
14:14 34.5 °F 27.5 °F 30.14 in Calm   4.0 mph 75% 0.00 in meteobridge W/m2
14:19 34.7 °F 27.3 °F 30.14 in Calm   4.0 mph 74% 0.00 in meteobridge W/m2
14:24 34.9 °F 28.0 °F 30.14 in Calm     76% 0.00 in meteobridge W/m2
14:29 35.1 °F 27.0 °F 30.14 in WNW 2.0 mph 4.0 mph 72% 0.00 in meteobridge W/m2
14:34 35.1 °F 27.7 °F 30.15 in Calm   2.0 mph 74% 0.00 in meteobridge W/m2
14:39 34.9 °F 26.8 °F 30.15 in Calm   3.0 mph 72% 0.00 in meteobridge W/m2
14:44 34.9 °F 26.8 °F 30.15 in Calm   1.0 mph 72% 0.00 in meteobridge W/m2
14:49 35.1 °F 27.0 °F 30.15 in NNW 0.9 mph 4.0 mph 72% 0.00 in meteobridge W/m2
14:54 35.2 °F 27.5 °F 30.15 in WNW 4.0 mph 4.0 mph 73% 0.00 in meteobridge W/m2
14:59 35.8 °F 28.4 °F 30.15 in NW 2.0 mph 2.0 mph 74% 0.00 in meteobridge W/m2
15:04 36.1 °F 28.0 °F 30.15 in Calm   3.0 mph 72% 0.00 in meteobridge W/m2
15:09 36.1 °F 27.3 °F 30.15 in Calm   3.0 mph 70% 0.00 in meteobridge W/m2
15:14 36.1 °F 27.7 °F 30.15 in WNW 0.9 mph 3.0 mph 71% 0.00 in meteobridge W/m2
15:19 36.0 °F 27.5 °F 30.16 in Calm     71% 0.00 in meteobridge W/m2
15:24 36.3 °F 27.5 °F 30.16 in NNW 2.9 mph 5.0 mph 70% 0.00 in meteobridge W/m2
15:29 36.9 °F 27.7 °F 30.15 in WNW 4.0 mph 5.0 mph 69% 0.00 in meteobridge W/m2
15:34 37.2 °F 27.7 °F 30.15 in NW 0.9 mph 3.0 mph 68% 0.00 in meteobridge W/m2
15:39 37.2 °F 27.0 °F 30.15 in NNW 4.0 mph 5.0 mph 66% 0.00 in meteobridge W/m2
15:44 36.9 °F 27.0 °F 30.15 in Calm   3.0 mph 67% 0.01 in meteobridge W/m2
15:49 36.7 °F 26.4 °F 30.15 in NW 8.1 mph 8.0 mph 66% 0.01 in meteobridge W/m2
15:54 36.3 °F 27.1 °F 30.15 in Calm   5.0 mph 69% 0.01 in meteobridge W/m2
15:59 36.1 °F 27.0 °F 30.14 in North 0.9 mph 3.0 mph 69% 0.01 in meteobridge W/m2
16:04 36.1 °F 27.0 °F 30.15 in WNW 0.9 mph 1.0 mph 69% 0.01 in meteobridge W/m2
16:09 36.0 °F 27.5 °F 30.15 in NE 2.9 mph 6.0 mph 71% 0.01 in meteobridge W/m2
16:14 35.8 °F 26.6 °F 30.15 in North 2.9 mph 5.0 mph 69% 0.01 in meteobridge W/m2
16:19 35.4 °F 26.2 °F 30.15 in Calm   8.0 mph 69% 0.01 in meteobridge W/m2
16:24 35.2 °F 27.1 °F 30.15 in Calm   2.0 mph 72% 0.01 in meteobridge W/m2
16:29 35.2 °F 26.4 °F 30.16 in NNW 2.0 mph 7.0 mph 70% 0.01 in meteobridge W/m2
16:34 34.9 °F 26.1 °F 30.16 in Calm   1.0 mph 70% 0.01 in meteobridge W/m2
16:39 34.7 °F 26.2 °F 30.16 in NNW 8.1 mph 8.0 mph 71% 0.01 in meteobridge W/m2
16:44 34.7 °F 26.2 °F 30.16 in Calm     71% 0.00 in meteobridge W/m2
16:49 34.7 °F 26.2 °F 30.16 in Calm   5.0 mph 71% 0.00 in meteobridge W/m2
16:54 34.3 °F 25.9 °F 30.17 in NNW 2.0 mph 3.0 mph 71% 0.00 in meteobridge W/m2
16:59 34.3 °F 25.9 °F 30.17 in Calm   4.0 mph 71% 0.00 in meteobridge W/m2
17:04 34.2 °F 25.7 °F 30.16 in Calm   1.0 mph 71% 0.00 in meteobridge W/m2
17:09 34.2 °F 26.4 °F 30.16 in NNE 2.9 mph 3.0 mph 73% 0.00 in meteobridge W/m2
17:14 34.0 °F 25.5 °F 30.16 in WNW 0.9 mph 5.0 mph 71% 0.00 in meteobridge W/m2
17:19 33.6 °F 25.2 °F 30.16 in Calm   4.0 mph 71% 0.00 in meteobridge W/m2
17:24 33.4 °F 25.3 °F 30.16 in Calm   4.0 mph 72% 0.00 in meteobridge W/m2
17:29 33.4 °F 25.3 °F 30.16 in Calm   2.0 mph 72% 0.00 in meteobridge W/m2
17:34 33.4 °F 25.7 °F 30.16 in Calm   1.0 mph 73% 0.00 in meteobridge W/m2
17:39 33.6 °F 25.9 °F 30.16 in WNW 2.0 mph 5.0 mph 73% 0.00 in meteobridge W/m2
17:44 33.4 °F 25.7 °F 30.16 in Calm   4.0 mph 73% 0.00 in meteobridge W/m2
17:49 33.4 °F 26.1 °F 30.16 in Calm     74% 0.00 in meteobridge W/m2
17:54 33.3 °F 25.2 °F 30.17 in Calm   4.0 mph 72% 0.00 in meteobridge W/m2
17:59 33.3 °F 25.5 °F 30.17 in Calm     73% 0.00 in meteobridge W/m2
18:04 33.1 °F 25.3 °F 30.17 in WSW 2.9 mph 4.0 mph 73% 0.00 in meteobridge W/m2
18:09 33.1 °F 25.3 °F 30.18 in Calm   3.0 mph 73% 0.00 in meteobridge W/m2
18:14 32.9 °F 25.2 °F 30.18 in Calm   1.0 mph 73% 0.00 in meteobridge W/m2
18:19 32.9 °F 25.2 °F 30.18 in Calm     73% 0.00 in meteobridge W/m2
18:24 32.7 °F 25.3 °F 30.18 in Calm   7.0 mph 74% 0.00 in meteobridge W/m2
18:29 32.7 °F 24.6 °F 30.18 in Calm   3.0 mph 72% 0.00 in meteobridge W/m2
18:34 32.5 °F 24.4 °F 30.19 in Calm   3.0 mph 72% 0.00 in meteobridge W/m2
18:39 32.5 °F 24.4 °F 30.19 in Calm     72% 0.00 in meteobridge W/m2
18:44 32.5 °F 24.8 °F 30.19 in Calm   1.0 mph 73% 0.00 in meteobridge W/m2
18:49 32.4 °F 24.6 °F 30.19 in Calm   3.0 mph 73% 0.00 in meteobridge W/m2
18:54 32.2 °F 24.4 °F 30.19 in Calm   2.0 mph 73% 0.00 in meteobridge W/m2
18:59 32.0 °F 24.1 °F 30.19 in Calm   1.0 mph 72% 0.00 in meteobridge W/m2
19:04 31.8 °F 24.1 °F 30.19 in Calm   1.0 mph 73% 0.00 in meteobridge W/m2
19:09 31.8 °F 24.1 °F 30.19 in Calm   2.0 mph 73% 0.00 in meteobridge W/m2
19:14 31.6 °F 23.9 °F 30.19 in Calm     73% 0.00 in meteobridge W/m2
19:19 31.6 °F 23.9 °F 30.19 in Calm   1.0 mph 73% 0.00 in meteobridge W/m2
19:24 31.6 °F 24.6 °F 30.18 in Calm     75% 0.00 in meteobridge W/m2
19:29 31.5 °F 23.9 °F 30.18 in Calm   2.0 mph 73% 0.00 in meteobridge W/m2
19:34 31.5 °F 24.1 °F 30.18 in Calm     74% 0.00 in meteobridge W/m2
19:39 31.5 °F 24.1 °F 30.17 in Calm   2.0 mph 74% 0.00 in meteobridge W/m2
19:44 31.3 °F 23.9 °F 30.17 in Calm   1.0 mph 74% 0.00 in meteobridge W/m2
19:49 31.3 °F 23.9 °F 30.17 in North 0.9 mph 1.0 mph 74% 0.00 in meteobridge W/m2
19:54 31.3 °F 24.3 °F 30.17 in Calm   5.0 mph 75% 0.00 in meteobridge W/m2
19:59 31.1 °F 24.1 °F 30.16 in Calm     75% 0.00 in meteobridge W/m2
20:04 31.1 °F 24.4 °F 30.16 in NNW 0.9 mph 1.0 mph 76% 0.00 in meteobridge W/m2
20:09 30.9 °F 24.3 °F 30.16 in WNW 4.9 mph 5.0 mph 76% 0.00 in meteobridge W/m2
20:14 30.9 °F 24.3 °F 30.16 in NW 4.9 mph 6.0 mph 76% 0.00 in meteobridge W/m2
20:19 30.7 °F 23.4 °F 30.16 in Calm   5.0 mph 74% 0.00 in meteobridge W/m2
20:24 30.7 °F 23.4 °F 30.16 in Calm   4.0 mph 74% 0.00 in meteobridge W/m2
20:29 30.6 °F 23.0 °F 30.16 in Calm   6.0 mph 73% 0.00 in meteobridge W/m2
20:34 30.6 °F 23.0 °F 30.16 in NW 4.9 mph 5.0 mph 73% 0.00 in meteobridge W/m2
20:39 30.6 °F 23.0 °F 30.15 in West 2.9 mph 3.0 mph 73% 0.00 in meteobridge W/m2
20:44 30.4 °F 22.1 °F 30.15 in NE 2.0 mph 5.0 mph 71% 0.00 in meteobridge W/m2
20:49 30.4 °F 22.5 °F 30.16 in Calm   4.0 mph 72% 0.00 in meteobridge W/m2
20:54 30.2 °F 22.6 °F 30.16 in North 4.0 mph 4.0 mph 73% 0.00 in meteobridge W/m2
20:59 30.2 °F 22.6 °F 30.16 in Calm   1.0 mph 73% 0.00 in meteobridge W/m2
21:04 30.0 °F 22.1 °F 30.16 in WNW 2.0 mph 8.0 mph 72% 0.00 in meteobridge W/m2
21:09 30.0 °F 22.1 °F 30.17 in Calm   9.0 mph 72% 0.00 in meteobridge W/m2
21:14 30.0 °F 22.1 °F 30.17 in NNE 2.0 mph 3.0 mph 72% 0.00 in meteobridge W/m2
21:19 30.0 °F 22.1 °F 30.17 in Calm   7.0 mph 72% 0.00 in meteobridge W/m2
21:24 29.8 °F 22.3 °F 30.17 in Calm   4.0 mph 73% 0.00 in meteobridge W/m2
21:29 29.8 °F 22.3 °F 30.18 in Calm   2.0 mph 73% 0.00 in meteobridge W/m2
21:34 29.8 °F 22.3 °F 30.18 in Calm   2.0 mph 73% 0.00 in meteobridge W/m2
21:39 29.7 °F 22.5 °F 30.19 in Calm   2.0 mph 74% 0.00 in meteobridge W/m2
21:44 29.7 °F 22.6 °F 30.19 in Calm     75% 0.00 in meteobridge W/m2
21:49 29.7 °F 22.5 °F 30.18 in Calm   4.0 mph 74% 0.00 in meteobridge W/m2
21:54 29.5 °F 22.5 °F 30.19 in Calm     75% 0.00 in meteobridge W/m2
21:59 29.5 °F 22.8 °F 30.19 in North 0.9 mph 1.0 mph 76% 0.00 in meteobridge W/m2
22:04 29.3 °F 22.6 °F 30.20 in Calm     76% 0.00 in meteobridge W/m2
22:09 29.3 °F 22.3 °F 30.20 in Calm   1.0 mph 75% 0.00 in meteobridge W/m2
22:14 29.3 °F 22.6 °F 30.19 in Calm   1.0 mph 76% 0.00 in meteobridge W/m2
22:19 29.1 °F 22.5 °F 30.20 in Calm     76% 0.00 in meteobridge W/m2
22:24 29.1 °F 22.3 °F 30.19 in Calm   3.0 mph 75% 0.00 in meteobridge W/m2
22:29 29.1 °F 22.3 °F 30.20 in Calm     75% 0.00 in meteobridge W/m2
22:34 28.9 °F 22.1 °F 30.20 in WNW 0.9 mph 1.0 mph 75% 0.00 in meteobridge W/m2
22:39 28.9 °F 22.1 °F 30.21 in Calm     75% 0.00 in meteobridge W/m2
22:44 28.9 °F 22.1 °F 30.21 in Calm   1.0 mph 75% 0.00 in meteobridge W/m2
22:49 28.9 °F 21.7 °F 30.21 in Calm   2.0 mph 74% 0.00 in meteobridge W/m2
22:54 28.9 °F 22.3 °F 30.20 in Calm     76% 0.00 in meteobridge W/m2
22:59 28.9 °F 22.3 °F 30.20 in Calm   1.0 mph 76% 0.00 in meteobridge W/m2
23:04 28.8 °F 21.9 °F 30.20 in Calm   1.0 mph 75% 0.00 in meteobridge W/m2
23:09 28.8 °F 22.1 °F 30.20 in NNW 0.9 mph 3.0 mph 76% 0.00 in meteobridge W/m2
23:14 28.8 °F 21.9 °F 30.20 in Calm     75% 0.00 in meteobridge W/m2
23:19 28.6 °F 21.9 °F 30.20 in Calm     76% 0.00 in meteobridge W/m2
23:24 28.6 °F 21.9 °F 30.20 in Calm     76% 0.00 in meteobridge W/m2
23:29 28.6 °F 21.9 °F 30.20 in Calm     76% 0.00 in meteobridge W/m2
23:34 28.4 °F 21.6 °F 30.20 in Calm   1.0 mph 75% 0.00 in meteobridge W/m2
23:39 28.2 °F 21.4 °F 30.20 in Calm   1.0 mph 75% 0.00 in meteobridge W/m2
23:44 28.2 °F 21.4 °F 30.19 in Calm   2.0 mph 75% 0.00 in meteobridge W/m2
23:49 28.2 °F 21.6 °F 30.20 in Calm   2.0 mph 76% 0.00 in meteobridge W/m2
23:54 28.2 °F 21.4 °F 30.19 in Calm   6.0 mph 75% 0.00 in meteobridge W/m2
23:59 28.0 °F 21.2 °F 30.19 in Calm   2.0 mph 75% 0.00 in meteobridge W/m2
EllijayWeather
Compliments of Weather Underground - 2.5 mb